Regional Weather Roundup
Issued by NWS

Home | Current Version | Previous Version | Text Only | Print | Product List | Glossary On
Versions: 1 2 3 4 5 6 7 8 9 10 11 12 13 14 15 16 17 18 19 20 21 22 23 24 25 26 27 28 29 30 31 32 33 34 35 36 37 38 39 40 41 42 43 44 45 46 47 48 49 50
000
ASUS43 KMKX 272100
RWRWI

WISCONSIN REGIONAL WEATHER ROUNDUP
NATIONAL WEATHER SERVICE MILWAUKEE/SULLIVAN WI
300 PM CST SAT DEC 27 2014

NOTE: "FAIR" INDICATES FEW OR NO CLOUDS BELOW 12,000 FEET WITH NO
SIGNIFICANT WEATHER AND/OR OBSTRUCTIONS TO VISIBILITY.

WIZ001-002-006>008-014>016-023>028-272200-
NORTHWEST WISCONSIN

CITY           SKY/WX    TMP DP  RH WIND       PRES   REMARKS
SUPERIOR ARPT  SUNNY     27  10  49 NW10      30.01S WCI  17
ASHLAND        PTCLDY    23  16  74 W9        29.99R WCI  13
HAYWARD        SUNNY     24  14  65 W6        29.99R WCI  17
SIREN          SUNNY     25  14  61 W8        30.03S WCI  17
CUMBERLAND     SUNNY     21  14  73 W10       30.01S WCI  10
RICE LAKE      SUNNY     23  14  70 W7        30.04R WCI  14
CHETEK         CLOUDY    24  17  73 W7        30.03R WCI  16
LADYSMITH      CLOUDY    26  21  81 W10       30.01R WCI  16
EAU CLAIRE     NOT AVBL
MENOMONIE      CLOUDY    25  19  77 W8        30.05S WCI  16
NEW RICHMOND   SUNNY     25  15  67 W8        30.05S WCI  16
OSCEOLA        SUNNY     26  16  65 W8        30.08S WCI  18
$$

WIZ003>005-009-010-017-018-272200-
NORTH CENTRAL WISCONSIN

CITY           SKY/WX    TMP DP  RH WIND       PRES   REMARKS
MANITOWISH WTR CLOUDY    25  24  96 NW9       29.90R WCI  15
ARBOR VITAE    CLOUDY    29  26  88 NW8       29.90R WCI  21
WOODRUFF       CLOUDY    29  26  88 NW8       29.90R WCI  21
RHINELANDER    CLOUDY    28  24  85 NW12G20   29.89R WCI  18
EAGLE RIVER    LGT SNOW  29  25  85 NW7       29.86R WCI  22
LAND O LAKES   CLOUDY    29  25  86 NW9       29.87R WCI  20
PHILLIPS       CLOUDY    26  23  89 W3        29.94R
TOMAHAWK       CLOUDY    29  24  81 NW10      29.91R WCI  20
MEDFORD        CLOUDY    27  23  84 NW10      29.93R WCI  17
MERRILL        CLOUDY    31  26  83 NW10G17   29.91R WCI  22
$$

WIZ029-030-035-036-043>047-272200-
CENTRAL WISCONSIN

CITY           SKY/WX    TMP DP  RH WIND       PRES   REMARKS
WAUSAU         CLOUDY    31  26  82 NW14G22   29.91R WCI  21
MOSINEE        NOT AVBL
MARSHFIELD     CLOUDY    29  23  78 NW15      29.96R WCI  18
STEVENS POINT  CLOUDY    30  28  89 W8        29.93R WCI  23
WAUPACA        CLOUDY    36  31  82 W9G16     29.93R WCI  29
WAUTOMA        NOT AVBL
WISC RAPIDS    CLOUDY    30  25  81 W14G24    29.98R WCI  19
CAMP DOUGLAS   NOT AVBL
$$

WIZ011>013-019>022-031-037>040-048>050-272200-
NORTHEAST WISCONSIN

CITY           SKY/WX    TMP DP  RH WIND       PRES   REMARKS
ANTIGO         CLOUDY    31  28  88 NW13      29.87R WCI  21
SHAWANO        CLOUDY    34  33  96 NW7       29.89R WCI  28
OCONTO         CLOUDY    33  33 100 NW5       29.86R WCI  28
STURGEON BAY   CLOUDY    34  30  86 NW10      29.86R WCI  26
GREEN BAY      CLOUDY    35  32  88 NW12      29.88R WCI  27
MANITOWOC      NOT AVBL
APPLETON       CLOUDY    34  32  93 W14G22    29.89R WCI  24
CLINTONVILLE   CLOUDY    34  32  93 NW10      29.89R WCI  26
OSHKOSH        CLOUDY    34  29  82 W15G24    29.92R WCI  24
$$

WIZ032>034-041-042-053>061-272200-
SOUTHWEST WISCONSIN

CITY           SKY/WX    TMP DP  RH WIND       PRES   REMARKS
LA CROSSE      CLOUDY    29  23  78 W13       30.06R WCI  19
SPARTA         CLOUDY    30  26  83 W7        30.03R WCI  24
VIROQUA        CLOUDY    28  28  99 W9        30.02R WCI  19
BOSCOBEL       CLOUDY    32  24  72 W6        30.06R WCI  26
PRAIRIE DU CHI MOSUNNY   32  24  73 W13       30.06S WCI  22
PLATTEVILLE    CLOUDY    31  27  85 W18G26    30.04S WCI  19
$$

WIZ056-057-062-063-064-067-068-272200-
SOUTH CENTRAL WISCONSIN

CITY           SKY/WX    TMP DP  RH WIND       PRES   REMARKS
REEDSBURG      CLOUDY    30  27  88 W12G20    29.99R WCI  21
BARABOO/DELLS  CLOUDY    31  27  84 W12G18    29.98R WCI  22
LONE ROCK      CLOUDY    35  26  69 NW12      30.04R WCI  27
MINERAL POINT  CLOUDY    32  28  86 W15G23    30.00R WCI  22
MADISON        CLOUDY    33  28  81 W8        29.99R WCI  26
MIDDLETON      CLOUDY    33  30  86 W18       29.99R WCI  22
WATERTOWN      CLOUDY    34  29  84 W14G21    29.96R WCI  24
MONROE         CLOUDY    32  30  93 W18G24    30.00R WCI  20
JANESVILLE     CLOUDY    36  28  75 W15       30.01R WCI  26
$$

WIZ051-052-058>065-066-070>072-272200-
SOUTHEAST WISCONSIN

CITY           SKY/WX    TMP DP  RH WIND       PRES   REMARKS
MILWAUKEE      CLOUDY    37  28  70 W21G35    29.95R WCI  26
WAUKESHA       CLOUDY    34  30  86 W23G29    29.96R WCI  22
MILWAUKEE/TIMM CLOUDY    36  28  75 W20G26    29.94R WCI  25
RACINE         CLOUDY    37  29  72 W15G29    29.98R WCI  28
BURLINGTON     CLOUDY    34  29  82 W14G21    29.97R WCI  24
KENOSHA        CLOUDY    36  30  79 W18G29    29.98R WCI  26
FOND DU LAC    CLOUDY    35  29  78 W16G26    29.93R WCI  25
SHEBOYGAN      CLOUDY    36  29  75 W16G31    29.90R WCI  26
WEST BEND      CLOUDY    34  30  86 W20G32    29.92R WCI  22
JUNEAU         CLOUDY    33  28  82 W15       29.96R WCI  23
$$

LSZ147-162-272200-
LAKE SUPERIOR

STATION/POSITION TIME  TEMP    WIND        PRES    WAVE
                       AIR SEA DIR/SP/G            HT/PER
                 (UTC) (F)     (DEG/KT/KT) (MB)    (FT/S)
DEVILS ISLAND    2000   25     240/ 17/ 22 1015.4F
PORT WING        2040   25     250/ 11/ 16 1015.9S
SAXON HARBOR     2000   26     290/  6/  8 1014.6F
$$

LMZ867-665-643>646-272200-
LAKE MICHIGAN

STATION/POSITION TIME  TEMP    WIND        PRES    WAVE
                       AIR SEA DIR/SP/G            HT/PER
                 (UTC) (F)     (DEG/KT/KT) (MB)    (FT/S)
CHAMBERS ISLAND  2000   33     300/  6/ 10 1009.8R
NORTHPORT PIER   2000   33     320/ 13/ 18 1008.8R
SISTER BAY       1913          350/ 18/ 20   N/A
KEWAUNEE LAKESHO 2000   37     270/ 13/ 20 1008.3R
SHEBOYGAN LAKESH 2000   38 39  270/ 22/ 29 1011.2R
PORT WASHINGTON  2000   39     260/ 16     1012.5R
MILWAUKEE LAKESH 2000   38     270/ 21/ 30   N/A
KENOSHA   LAKESH 2000   38     260/ 22/ 29 1013.9S
$$

TC  - TEMPERATURE IN CELSIUS
VSB - VISIBILITY IN STATUTE MILES
WCI - WIND CHILL INDEX
HX  - HEAT INDEX



USA.gov is the U.S. government's official web portal to all federal, state and local government web resources and services.